Tracking 35274 objects as of 11-Sep-2026
HD Live streaming from Space Station
objects crossing your sky now

SL-12 DEB


SL-12 DEB is no longer on orbit


NORAD ID: 29329
Int'l Code: 1989-039AL
Launch date: May 31, 1989
Source: Commonwealth of Independent States (former USSR) (CIS)
Launch site: TYURATAM MISSILE AND SPACE COMPLEX (TTMTR)
Decay date: 2006-11-22

Note: This is SATELLITE DEBRIS
Your satellite tracking list
Your tracking list is empty




NASA's NSSDC Master Catalog

Two Line Element Set (TLE):
1 29329U 89039AL  06313.17831236 +.02241603 +00000-0 +26322-0 0  9991
2 29329 065.4211 234.7700 5588532 064.8277 343.6257 04.69678229004501
Source of the keplerian elements: AFSPC